Tracking 18630 objects as of 24-May-2017
HD Live streaming from Space Station
objects crossing your sky now

BREEZE-M R/B

Track BREEZE-M R/B now!


NORAD ID: 28925
Int'l Code: 2005-052B
Perigee: 6,183.4 km
Apogee: 35,358.7 km
Inclination: 19.7 °
Period: 741.7 minutes
Semi major axis: 27142 km
RCS: 0.6439 m2 (medium)
Launch date: December 29, 2005
Source: Commonwealth of Independent States (former USSR) (CIS)
Launch site: TYURATAM MISSILE AND SPACE COMPLEX (TTMTR)

Note: This is a ROCKET BODY
Your satellite tracking list
Your tracking list is empty





NASA's NSSDC Master Catalog

Two Line Element Set (TLE):
1 28925U 05052B   17143.57506312 +.00000030 +00000-0 +00000-0 0  9996
2 28925 019.6935 000.5476 5374571 197.7796 075.0905 01.94150911080848
Source of the keplerian elements: AFSPC